Back to catalog

USA 271

AliveNavigationGEO
NORAD 41745·PAYLOAD·🇺🇸 United States

Launched Aug 19, 2016 from Cape Canaveral Space Force Station

Loading…

TLE

FreshSource: Space-Track

Epoch: Sep 12, 2026, 15:53 UTC

1 41745U 16052B   26255.66193895  .00000074  00000-0  00000+0 0  9992
2 41745   4.3889  76.0998 0002659 171.2472  40.0508  0.99059437 28799

Track USA 271 in real time with AllMySat

Download on the App Store